Location: Westminster
(33.3626°N, 96.4619°W)
Time: 11:46:37
(UTC+00:00)

Cosmos 1515 Rocket - Pass Details

Date: 27 June 2022
Orbit: 604 x 631 km, 82.5° (Epoch: 13 August)

Event Time Altitude Azimuth Distance (km) Brightness Sun altitude
Rises 10:07:43 0° 353° (N) 2,902 7.5 -13.0°
Reaches altitude 10° 10:09:58 10° 353° (N) 1,988 6.6 -12.7°
Maximum altitude 10:14:22 88° 270° (W) 620 3.5 -12.0°
Drops below altitude 10° 10:18:43 10° 176° (S) 1,958 5.8 -11.3°
Sets 10:20:54 0° 176° (S) 2,855 6.6 -10.9°
